THK2 LTAD-LTAD

Flight info

Callsign THK2
Flight time 0h 14m
Altitude 9000
Route LOCAL VFR
Aircraft C172/L-SFG/C

Departure

Time 2026-05-07 10:37
Airport Etimesgut Air Base (LTAD)

Arrival

Time 2026-05-07 10:51
Airport Etimesgut Air Base (LTAD)
Time Latitude Longitude Altitude Speed Heading
2026-05-07 10:29 39.94633 32.68971 2710 ft 0 kts 242°
2026-05-07 10:30 39.94630 32.68969 2709 ft 0 kts 208°
2026-05-07 10:31 39.95721 32.67671 2711 ft 0 kts 341°
2026-05-07 10:31 39.95689 32.67662 2714 ft 10 kts 150°
2026-05-07 10:31 39.94651 32.68925 2712 ft 12 kts 140°
2026-05-07 10:32 39.94631 32.68968 2709 ft 0 kts 239°
2026-05-07 10:32 39.94660 32.68900 2712 ft 0 kts 235°
2026-05-07 10:32 39.94564 32.69140 2715 ft 0 kts 179°
2026-05-07 10:33 39.94560 32.69158 2714 ft 8 kts 53°
2026-05-07 10:33 39.94598 32.69189 2712 ft 6 kts 28°
2026-05-07 10:33 39.94629 32.69243 2711 ft 11 kts 88°
2026-05-07 10:34 39.94626 32.69345 2711 ft 10 kts 94°
2026-05-07 10:34 39.94620 32.69382 2711 ft 0 kts 98°
2026-05-07 10:34 39.94620 32.69384 2711 ft 2 kts 99°
2026-05-07 10:34 39.94610 32.69467 2711 ft 15 kts 91°
2026-05-07 10:35 39.94643 32.69534 2716 ft 7 kts 299°
2026-05-07 10:35 39.94647 32.69520 2721 ft 0 kts 292°
2026-05-07 10:35 39.94648 32.69519 2720 ft 4 kts 292°
2026-05-07 10:36 39.94728 32.69273 2714 ft 53 kts 293°
2026-05-07 10:36 39.94932 32.68693 2768 ft 79 kts 292°
2026-05-07 10:36 39.95149 32.68032 2930 ft 83 kts 292°
2026-05-07 10:36 39.95377 32.67318 3108 ft 87 kts 291°
2026-05-07 10:37 39.95592 32.66571 3285 ft 88 kts 290°
2026-05-07 10:37 39.95759 32.65792 3482 ft 90 kts 283°
2026-05-07 10:37 39.95917 32.64925 3498 ft 106 kts 285°
2026-05-07 10:37 39.95942 32.63970 3656 ft 106 kts 256°
2026-05-07 10:38 39.95770 32.63031 3735 ft 109 kts 258°
2026-05-07 10:38 39.95605 32.62116 3965 ft 99 kts 256°
2026-05-07 10:38 39.95145 32.61537 4224 ft 97 kts 206°
2026-05-07 10:38 39.94548 32.61178 4434 ft 90 kts 207°
2026-05-07 10:39 39.93990 32.60859 4656 ft 85 kts 207°
2026-05-07 10:39 39.93448 32.60538 4760 ft 92 kts 208°
2026-05-07 10:39 39.92826 32.60151 4831 ft 103 kts 209°
2026-05-07 10:39 39.92167 32.59745 4907 ft 106 kts 208°
2026-05-07 10:40 39.91440 32.59503 4918 ft 119 kts 172°
2026-05-07 10:40 39.90827 32.60229 4944 ft 125 kts 117°
2026-05-07 10:40 39.90463 32.61255 5000 ft 126 kts 117°
2026-05-07 10:40 39.90095 32.62291 5049 ft 126 kts 117°
2026-05-07 10:41 39.89732 32.63326 5096 ft 124 kts 118°
2026-05-07 10:41 39.89390 32.64310 5140 ft 125 kts 117°
2026-05-07 10:41 39.89026 32.65367 5192 ft 125 kts 117°
2026-05-07 10:41 39.88791 32.66056 5215 ft 124 kts 117°
2026-05-07 10:42 39.88440 32.67096 5276 ft 124 kts 117°
2026-05-07 10:42 39.88144 32.68518 5264 ft 132 kts 78°
2026-05-07 10:42 39.88463 32.69200 5194 ft 136 kts 40°
2026-05-07 10:42 39.89288 32.69831 5107 ft 139 kts 27°
2026-05-07 10:43 39.90078 32.70416 4972 ft 119 kts 27°
2026-05-07 10:43 39.90794 32.70916 4722 ft 120 kts 23°
2026-05-07 10:43 39.91588 32.71195 4469 ft 119 kts
2026-05-07 10:43 39.92423 32.71374 4038 ft 118 kts
2026-05-07 10:44 39.93203 32.71514 3741 ft 111 kts
2026-05-07 10:44 39.93948 32.71222 3307 ft 114 kts 321°
2026-05-07 10:44 39.94356 32.70393 2931 ft 105 kts 292°
2026-05-07 10:44 39.94632 32.69571 2736 ft 90 kts 292°
2026-05-07 10:45 39.94844 32.68936 2719 ft 66 kts 297°
2026-05-07 10:45 39.95026 32.68396 2773 ft 69 kts 291°
2026-05-07 10:45 39.95016 32.67831 2931 ft 66 kts 224°
2026-05-07 10:45 39.94582 32.67582 3097 ft 68 kts 199°
2026-05-07 10:46 39.94103 32.67508 3256 ft 75 kts 158°
2026-05-07 10:46 39.93781 32.68093 3418 ft 91 kts 116°
2026-05-07 10:46 39.93473 32.68905 3476 ft 108 kts 118°
2026-05-07 10:46 39.93138 32.69832 3569 ft 115 kts 118°
2026-05-07 10:47 39.92824 32.70765 3560 ft 106 kts 88°
2026-05-07 10:47 39.93280 32.71286 3518 ft 88 kts 16°
2026-05-07 10:47 39.93858 32.71363 3352 ft 81 kts 322°
2026-05-07 10:47 39.94233 32.70755 3082 ft 94 kts 292°
2026-05-07 10:48 39.94508 32.69942 2821 ft 99 kts 290°
2026-05-07 10:48 39.94770 32.69158 2723 ft 87 kts 293°
2026-05-07 10:48 39.94992 32.68494 2781 ft 81 kts 291°
2026-05-07 10:48 39.95182 32.67814 2948 ft 82 kts 288°
2026-05-07 10:49 39.95045 32.67219 3160 ft 78 kts 203°
2026-05-07 10:49 39.94488 32.66990 3312 ft 89 kts 200°
2026-05-07 10:49 39.93968 32.67201 3516 ft 95 kts 116°
2026-05-07 10:49 39.93681 32.68068 3642 ft 110 kts 111°
2026-05-07 10:50 39.93409 32.69031 3717 ft 119 kts 109°
2026-05-07 10:50 39.93142 32.70093 3702 ft 121 kts 108°
2026-05-07 10:50 39.93239 32.71013 3600 ft 101 kts 34°
2026-05-07 10:50 39.93852 32.71285 3427 ft 91 kts 348°
2026-05-07 10:51 39.94255 32.70626 3085 ft 104 kts 300°
2026-05-07 10:51 39.94555 32.69799 2782 ft 96 kts 292°
2026-05-07 10:51 39.94766 32.69166 2722 ft 57 kts 289°
2026-05-07 10:51 39.94888 32.68762 2719 ft 47 kts 299°
2026-05-07 10:52 39.94969 32.68521 2724 ft 9 kts 192°
2026-05-07 10:52 39.94919 32.68580 2721 ft 14 kts 135°
2026-05-07 10:52 39.94867 32.68660 2724 ft 8 kts 131°
2026-05-07 10:52 39.94831 32.68710 2724 ft 7 kts 136°
2026-05-07 10:53 39.94805 32.68752 2722 ft 5 kts 121°
2026-05-07 10:53 39.94784 32.68795 2724 ft 9 kts 123°
2026-05-07 10:53 39.94733 32.68886 2721 ft 14 kts 125°
2026-05-07 10:53 39.94690 32.68949 2721 ft 6 kts 177°
2026-05-07 10:54 39.94663 32.68922 2721 ft 4 kts 196°
2026-05-07 10:54 39.94645 32.68931 2725 ft 0 kts 140°